This demonstration page uses our WeatherBlox Daily Observations layout. Learn more.

Left ArrowRight Arrow

53.62937, 11.41316

Hourly Observations for November 19, 2018

Temp ( °F °C ) Dew Point ( °F °C ) Humidity (%) Winds ( mph kmh ) Pressure ( in mb ) Visibility ( mi km ) Precip ( " mm )
6:50 am 06:50 Mostly Clear 41 5 36 2 81 81 ENE 13 20 30.30 1026 7 11 N/A
7:20 am 07:20 Partly Cloudy 41 5 36 2 81 81 ENE 14 22 30.30 1026 30 48 N/A
7:50 am 07:50 Mostly Cloudy 41 5 36 2 81 81 ENE 10 17 30.30 1026 30 48 N/A
8:20 am 08:20 Partly Cloudy 39 4 36 2 87 87 ENE 10 17 30.30 1026 30 48 N/A
8:50 am 08:50 Partly Cloudy 41 5 36 2 81 81 ENE 9 15 30.30 1026 30 48 N/A
9:20 am 09:20 Partly Cloudy 41 5 36 2 81 81 ENE 12 19 30.30 1026 30 48 N/A
9:50 am 09:50 Partly Cloudy 43 6 36 2 76 76 ENE 15 24 30.30 1026 30 48 N/A
10:20 am 10:20 Partly Cloudy 43 6 37 3 81 81 ENE 14 22 30.30 1026 30 48 N/A
10:50 am 10:50 Partly Cloudy 43 6 36 2 76 76 E 14 22 30.30 1026 30 48 N/A
11:20 am 11:20 Partly Cloudy 43 6 36 2 76 76 ENE 15 24 30.30 1026 30 48 N/A
11:50 am 11:50 Mostly Sunny 45 7 36 2 71 71 ENE 16 26 30.27 1025 30 48 N/A
12:20 pm 12:20 Partly Cloudy 45 7 36 2 71 71 E 16 26 30.27 1025 30 48 N/A
12:50 pm 12:50 Partly Cloudy 45 7 36 2 71 71 E 16 26 30.27 1025 30 48 N/A
1:20 pm 13:20 Mostly Cloudy 45 7 34 1 66 66 E 18 30 30.27 1025 30 48 N/A
1:50 pm 13:50 Partly Cloudy 45 7 34 1 66 66 E 17 28 30.27 1025 30 48 N/A
2:20 pm 14:20 Partly Cloudy 43 6 36 2 76 76 E 16 26 30.27 1025 30 48 N/A
2:50 pm 14:50 Partly Cloudy 43 6 34 1 71 71 E 14 22 30.27 1025 30 48 N/A
3:20 pm 15:20 Mostly Sunny 43 6 34 1 71 71 E 13 20 30.27 1025 30 48 N/A
3:50 pm 15:50 Mostly Sunny 41 5 34 1 76 76 E 14 22 30.27 1025 30 48 N/A
4:20 pm 16:20 Mostly Clear 41 5 34 1 76 76 E 13 20 30.24 1024 30 48 N/A
4:50 pm 16:50 Mostly Clear 41 5 34 1 76 76 E 12 19 30.27 1025 30 48 N/A
5:20 pm 17:20 Mostly Clear 39 4 32 0 75 75 ENE 14 22 30.24 1024 7 11 N/A
5:50 pm 17:50 Mostly Clear 39 4 34 1 81 81 E 10 17 30.24 1024 7 11 N/A
6:20 pm 18:20 Mostly Clear 39 4 34 1 81 81 ENE 12 19 30.24 1024 7 11 N/A
6:50 pm 18:50 Mostly Clear 39 4 34 1 81 81 ENE 12 19 30.24 1024 7 11 N/A

Powered by AerisWeather